TimeEDT,TemperatureF,Dew PointF,Humidity,Sea Level PressureIn,VisibilityMPH,Wind Direction,Wind SpeedMPH,Gust SpeedMPH,PrecipitationIn,Events,Conditions,WindDirDegrees,DateUTC
12:06 AM,55.4,53.6,94,29.94,2.5,Calm,Calm,-,N/A,,Overcast,0,2013-05-23 04:06:00
12:35 AM,55.4,53.6,94,29.93,3.0,Calm,Calm,-,N/A,,Overcast,0,2013-05-23 04:35:00
12:52 AM,55.0,54.0,96,29.92,3.0,Calm,Calm,-,N/A,,Overcast,0,2013-05-23 04:52:00
1:41 AM,55.4,53.6,94,29.93,2.0,Calm,Calm,-,N/A,,Overcast,0,2013-05-23 05:41:00
1:52 AM,55.0,54.0,96,29.92,1.8,Calm,Calm,-,0.01,,Overcast,0,2013-05-23 05:52:00
2:13 AM,55.4,53.6,94,29.91,2.0,East,3.5,-,N/A,,Overcast,100,2013-05-23 06:13:00
2:25 AM,55.4,53.6,94,29.91,4.0,Calm,Calm,-,N/A,,Overcast,0,2013-05-23 06:25:00
2:52 AM,55.0,54.0,96,29.90,2.5,Calm,Calm,-,N/A,,Overcast,0,2013-05-23 06:52:00
3:52 AM,55.0,54.0,96,29.89,2.5,Calm,Calm,-,N/A,,Overcast,0,2013-05-23 07:52:00
4:02 AM,55.4,53.6,94,29.89,3.0,Calm,Calm,-,N/A,,Overcast,0,2013-05-23 08:02:00
4:09 AM,55.4,53.6,94,29.88,2.5,ESE,3.5,-,N/A,,Overcast,110,2013-05-23 08:09:00
4:52 AM,55.0,54.0,96,29.89,2.5,SSE,4.6,-,N/A,,Overcast,150,2013-05-23 08:52:00
5:23 AM,55.4,55.4,100,29.89,1.8,SE,3.5,-,N/A,,Overcast,140,2013-05-23 09:23:00
5:32 AM,55.4,55.4,100,29.90,2.0,South,3.5,-,N/A,,Overcast,170,2013-05-23 09:32:00
5:40 AM,55.4,55.4,100,29.90,1.2,ESE,3.5,-,N/A,,Overcast,120,2013-05-23 09:40:00
5:49 AM,55.4,55.4,100,29.90,1.0,Calm,Calm,-,N/A,,Overcast,0,2013-05-23 09:49:00
5:52 AM,55.9,55.0,97,29.89,1.0,East,3.5,-,N/A,,Overcast,100,2013-05-23 09:52:00
6:03 AM,55.4,55.4,100,29.90,1.2,Calm,Calm,-,N/A,,Overcast,0,2013-05-23 10:03:00
6:52 AM,55.9,55.0,97,29.91,1.5,Calm,Calm,-,N/A,,Overcast,0,2013-05-23 10:52:00
7:52 AM,57.0,55.9,96,29.91,1.2,Calm,Calm,-,N/A,,Overcast,0,2013-05-23 11:52:00
8:00 AM,57.2,55.4,94,29.91,1.0,Calm,Calm,-,N/A,,Overcast,0,2013-05-23 12:00:00
8:38 AM,57.2,55.4,94,29.91,1.5,Calm,Calm,-,0.00,Rain,Light Rain,0,2013-05-23 12:38:00
8:52 AM,57.0,55.9,96,29.91,1.5,Calm,Calm,-,0.00,,Overcast,0,2013-05-23 12:52:00
9:12 AM,57.2,57.2,100,29.91,2.5,Calm,Calm,-,N/A,,Overcast,0,2013-05-23 13:12:00
9:30 AM,57.2,57.2,100,29.91,2.0,Calm,Calm,-,N/A,Thunderstorm,Overcast,0,2013-05-23 13:30:00
9:52 AM,59.0,57.0,93,29.91,1.2,Calm,Calm,-,0.06,Rain-Thunderstorm,Thunderstorms and Rain,0,2013-05-23 13:52:00
9:54 AM,59.0,57.2,94,29.91,0.8,Calm,Calm,-,0.06,Rain-Thunderstorm,Heavy Thunderstorms and Rain,0,2013-05-23 13:54:00
10:02 AM,59.0,57.2,94,29.89,1.0,ESE,3.5,-,0.11,Rain,Rain,110,2013-05-23 14:02:00
10:05 AM,59.0,57.2,94,29.90,2.0,Calm,Calm,-,0.11,Rain,Light Rain,0,2013-05-23 14:05:00
10:08 AM,59.0,57.2,94,29.90,4.0,Calm,Calm,-,0.11,Rain,Light Rain,0,2013-05-23 14:08:00
10:23 AM,60.8,57.2,88,29.90,2.5,SSE,8.1,-,0.18,Rain-Thunderstorm,Thunderstorms and Rain,150,2013-05-23 14:23:00
10:30 AM,60.8,59.0,94,29.90,1.2,Variable,3.5,-,0.23,Rain-Thunderstorm,Heavy Thunderstorms and Rain,0,2013-05-23 14:30:00
10:35 AM,60.8,60.8,100,29.89,2.5,SSE,3.5,-,0.23,Rain,Light Rain,150,2013-05-23 14:35:00
10:42 AM,60.8,60.8,100,29.89,8.0,Calm,Calm,-,0.23,Rain,Light Rain,0,2013-05-23 14:42:00
10:52 AM,62.1,61.0,96,29.90,9.0,Calm,Calm,-,0.23,,Overcast,0,2013-05-23 14:52:00
11:21 AM,64.4,62.6,94,29.90,7.0,SSE,8.1,-,N/A,,Overcast,150,2013-05-23 15:21:00
11:47 AM,69.8,66.2,88,29.88,8.0,SE,6.9,-,N/A,,Mostly Cloudy,140,2013-05-23 15:47:00
11:52 AM,70.0,66.0,87,29.88,8.0,SSE,5.8,-,N/A,,Scattered Clouds,150,2013-05-23 15:52:00
12:32 PM,75.2,66.2,73,29.88,9.0,SW,10.4,-,0.00,Rain,Light Rain,220,2013-05-23 16:32:00
12:52 PM,75.0,66.0,73,29.87,10.0,SW,6.9,-,0.00,,Mostly Cloudy,220,2013-05-23 16:52:00
1:00 PM,75.2,66.2,73,29.87,10.0,SSW,6.9,-,0.00,Rain,Light Rain,200,2013-05-23 17:00:00
1:47 PM,75.2,66.2,73,29.85,10.0,SSW,11.5,-,0.00,,Mostly Cloudy,210,2013-05-23 17:47:00
1:52 PM,75.9,66.9,74,29.85,10.0,SSW,12.7,-,0.00,,Mostly Cloudy,200,2013-05-23 17:52:00
2:52 PM,75.0,66.0,73,29.86,10.0,South,13.8,21.9,0.01,,Mostly Cloudy,180,2013-05-23 18:52:00
3:52 PM,73.0,64.9,76,29.86,10.0,SSW,9.2,-,N/A,,Scattered Clouds,200,2013-05-23 19:52:00
4:52 PM,71.1,66.9,87,29.85,10.0,South,6.9,-,0.03,Rain,Light Rain,180,2013-05-23 20:52:00
5:31 PM,69.8,66.2,88,29.84,1.8,SSE,8.1,-,0.15,Rain,Heavy Rain,150,2013-05-23 21:31:00
5:52 PM,70.0,66.9,90,29.85,2.5,South,9.2,-,0.32,Rain,Rain,170,2013-05-23 21:52:00
5:57 PM,69.8,66.2,88,29.85,1.0,South,12.7,18.4,0.16,Rain,Heavy Rain,170,2013-05-23 21:57:00
6:05 PM,69.8,66.2,88,29.86,0.8,South,12.7,19.6,0.23,Rain,Heavy Rain,180,2013-05-23 22:05:00
6:07 PM,69.8,66.2,88,29.85,1.2,South,12.7,19.6,0.23,Rain,Rain,190,2013-05-23 22:07:00
6:11 PM,69.8,66.2,88,29.86,3.0,SSW,11.5,19.6,0.24,Rain,Rain,200,2013-05-23 22:11:00
6:52 PM,68.0,64.0,87,29.86,7.0,South,8.1,-,0.31,Rain,Light Rain,190,2013-05-23 22:52:00
7:52 PM,68.0,64.9,90,29.86,10.0,SSE,4.6,-,0.04,Rain,Light Rain,150,2013-05-23 23:52:00
8:26 PM,68.0,64.4,88,29.84,10.0,SSE,5.8,-,0.00,,Overcast,160,2013-05-24 00:26:00
8:52 PM,68.0,64.9,90,29.84,9.0,South,9.2,-,0.00,Rain,Light Rain,170,2013-05-24 00:52:00
9:52 PM,68.0,64.0,87,29.84,10.0,South,8.1,-,0.00,,Overcast,190,2013-05-24 01:52:00
10:20 PM,66.2,64.4,94,29.83,2.0,South,5.8,-,0.05,Rain,Heavy Rain,170,2013-05-24 02:20:00
10:31 PM,66.2,64.4,94,29.82,5.0,SSE,8.1,-,0.07,Rain,Rain,160,2013-05-24 02:31:00
10:42 PM,66.2,64.4,94,29.82,2.5,SSE,6.9,-,0.12,Rain,Heavy Rain,150,2013-05-24 02:42:00
10:52 PM,66.0,64.9,96,29.81,3.0,SSE,8.1,-,0.16,Rain,Rain,150,2013-05-24 02:52:00
11:05 PM,66.2,64.4,94,29.81,2.5,SSE,10.4,-,0.05,Rain,Rain,150,2013-05-24 03:05:00
11:09 PM,66.2,64.4,94,29.81,3.0,SSE,8.1,-,0.05,Rain,Light Rain,160,2013-05-24 03:09:00
11:52 PM,66.0,64.0,93,29.80,7.0,South,6.9,-,0.07,Rain,Light Rain,170,2013-05-24 03:52:00